Location: Apollinopolis Magna
(24.9792°N, 32.8772°E)
Time: 18:31:56
(UTC+00:00)

Cosmos 1939 Rocket - Pass Details

Date: 02 March 2021
Orbit: 534 x 582 km, 97.4° (Epoch: 10 April)

Event Time Altitude Azimuth Distance (km) Brightness Sun altitude
Rises 16:18:18 0° 183° (S) 2,681 6.4 -6.9°
Reaches altitude 10° 16:20:31 10° 191° (SSW) 1,788 5.6 -7.4°
Maximum altitude 16:24:07 38° 261° (W) 821 4.5 -8.2°
Drops below altitude 10° 16:27:44 10° 330° (NNW) 1,786 5.8 -9.1°
Sets 16:29:57 0° 339° (NNW) 2,678 6.6 -9.6°
